W9IF-4 Weather Reports


Display with metric or nautical units.
time (UTC)temp
F
wind
direction
speed
MPH
gust
MPH
rain 1hr
in
rain 24hr
in
rain mn
in
humidity
%
barometer
mb
20141101073530 65 163 14.0 0.0 0.00 0.00 0.00 1015.3
20141101073430 65 207 10.0 0.0 0.00 0.00 0.00 1015.3
20141101073330 65 190 9.0 0.0 0.00 0.00 0.00 1015.3
20141101073230 65 179 12.0 0.0 0.00 0.00 0.00 1015.3
20141101073130 65 181 11.0 0.0 0.00 0.00 0.00 1015.3
20141101073030 65 200 12.0 0.0 0.00 0.00 0.00 1015.3
20141101072930 65 203 13.0 0.0 0.00 0.00 0.00 1015.3
20141101072830 65 204 12.0 0.0 0.00 0.00 0.00 1015.3
20141101072730 65 191 10.0 0.0 0.00 0.00 0.00 1015.3
20141101072630 65 211 12.0 0.0 0.00 0.00 0.00 1015.3
20141101072530 65 166 10.0 0.0 0.00 0.00 0.00 1015.2
20141101072430 65 172 11.0 0.0 0.00 0.00 0.00 1015.3
20141101072330 65 190 6.0 0.0 0.00 0.00 0.00 1015.2
20141101072230 65 201 11.0 0.0 0.00 0.00 0.00 1015.2
20141101072130 65 191 8.0 0.0 0.00 0.00 0.00 1015.2
20141101072030 65 166 9.0 0.0 0.00 0.00 0.00 1015.2
20141101071930 65 186 9.0 0.0 0.00 0.00 0.00 1015.2
20141101071830 65 197 12.0 0.0 0.00 0.00 0.00 1015.2
20141101071730 65 204 12.0 0.0 0.00 0.00 0.00 1015.2
20141101071630 65 203 8.0 0.0 0.00 0.00 0.00 1015.2
20141101071530 65 187 9.0 0.0 0.00 0.00 0.00 1015.2
20141101071430 65 172 9.0 0.0 0.00 0.00 0.00 1015.2
20141101071330 65 184 10.0 0.0 0.00 0.00 0.00 1015.2
20141101071230 65 194 11.0 0.0 0.00 0.00 0.00 1015.2
20141101071130 65 191 10.0 0.0 0.00 0.00 0.00 1015.2
20141101071030 65 165 10.0 0.0 0.00 0.00 0.00 1015.3
20141101070930 65 195 8.0 0.0 0.00 0.00 0.00 1015.3
20141101070830 65 180 8.0 0.0 0.00 0.00 0.00 1015.2
20141101070730 65 186 12.0 0.0 0.00 0.00 0.00 1015.2
20141101070630 65 184 9.0 0.0 0.00 0.00 0.00 1015.3
20141101070530 65 200 9.0 0.0 0.00 0.00 0.00 1015.3
20141101070430 65 163 9.0 0.0 0.00 0.00 0.00 1015.3
20141101070330 65 190 10.0 0.0 0.00 0.00 0.00 1015.4
20141101070230 65 195 10.0 0.0 0.00 0.00 0.00 1015.4
20141101070130 65 186 10.0 0.0 0.00 0.00 0.00 1015.4
20141101070030 65 215 8.0 0.0 0.00 0.00 0.00 1015.4
20141101065930 65 184 8.0 0.0 0.00 0.00 0.00 1015.4
20141101065830 65 201 6.0 0.0 0.00 0.00 0.00 1015.4
20141101065730 65 170 7.0 0.0 0.00 0.00 0.00 1015.3
20141101065630 65 207 7.0 0.0 0.00 0.00 0.00 1015.3
20141101065530 65 194 9.0 0.0 0.00 0.00 0.00 1015.2
20141101065430 65 194 7.0 0.0 0.00 0.00 0.00 1015.2
20141101065330 65 156 7.0 0.0 0.00 0.00 0.00 1015.2
20141101065230 65 165 7.0 0.0 0.00 0.00 0.00 1015.2
20141101065130 65 167 7.0 0.0 0.00 0.00 0.00 1015.2
20141101065030 65 201 7.0 0.0 0.00 0.00 0.00 1015.2
20141101064930 65 201 8.0 0.0 0.00 0.00 0.00 1015.2
20141101064830 65 187 8.0 0.0 0.00 0.00 0.00 1015.3
20141101064730 65 201 10.0 0.0 0.00 0.00 0.00 1015.3
20141101064630 65 207 10.0 0.0 0.00 0.00 0.00 1015.3
20141101064530 65 190 11.0 0.0 0.00 0.00 0.00 1015.3
20141101064430 65 204 11.0 0.0 0.00 0.00 0.00 1015.3
20141101064330 65 159 10.0 0.0 0.00 0.00 0.00 1015.3
20141101064230 65 211 9.0 0.0 0.00 0.00 0.00 1015.4
20141101064130 65 224 11.0 0.0 0.00 0.00 0.00 1015.4
20141101064030 65 194 12.0 0.0 0.00 0.00 0.00 1015.4
20141101063930 65 210 13.0 0.0 0.00 0.00 0.00 1015.4
20141101063830 65 211 13.0 0.0 0.00 0.00 0.00 1015.4
20141101063730 65 229 14.0 0.0 0.00 0.00 0.00 1015.4
20141101063630 65 238 13.0 0.0 0.00 0.00 0.00 1015.4
20141101063530 65 236 12.0 0.0 0.00 0.00 0.00 1015.5
20141101063430 65 217 14.0 0.0 0.00 0.00 0.00 1015.5
20141101063330 65 217 13.0 0.0 0.00 0.00 0.00 1015.5
20141101063230 65 215 11.0 0.0 0.00 0.00 0.00 1015.5
20141101063130 66 208 15.0 0.0 0.00 0.00 0.00 1015.5
20141101063030 65 222 13.0 0.0 0.00 0.00 0.00 1015.5
20141101062930 65 200 12.0 0.0 0.00 0.00 0.00 1015.5
20141101062830 66 208 19.0 0.0 0.00 0.00 0.00 1015.6
20141101062730 66 210 16.0 0.0 0.00 0.00 0.00 1015.6
20141101062630 66 211 16.0 0.0 0.00 0.00 0.00 1015.6
20141101062530 66 198 14.0 0.0 0.00 0.00 0.00 1015.5
20141101062430 66 218 14.0 0.0 0.00 0.00 0.00 1015.6
20141101062330 66 224 19.0 0.0 0.00 0.00 0.00 1015.6
20141101062230 65 219 18.0 0.0 0.00 0.00 0.00 1015.6
20141101062130 65 214 14.0 0.0 0.00 0.00 0.00 1015.5
20141101062030 66 204 17.0 0.0 0.00 0.00 0.00 1015.5
20141101061930 65 215 20.0 0.0 0.00 0.00 0.00 1015.5
20141101061830 66 218 20.0 0.0 0.00 0.00 0.00 1015.5
20141101061730 66 217 20.0 0.0 0.00 0.00 0.00 1015.5
20141101061630 66 228 16.0 0.0 0.00 0.00 0.00 1015.5
20141101061530 66 221 12.0 0.0 0.00 0.00 0.00 1015.5
20141101061430 65 201 12.0 0.0 0.00 0.00 0.00 1015.6
20141101061330 65 207 13.0 0.0 0.00 0.00 0.00 1015.6
20141101061230 66 225 13.0 0.0 0.00 0.00 0.00 1015.6
20141101061130 66 219 16.0 0.0 0.00 0.00 0.00 1015.6
20141101061030 66 225 16.0 0.0 0.00 0.00 0.00 1015.7
20141101060930 66 194 16.0 0.0 0.00 0.00 0.00 1015.7
20141101060830 66 235 11.0 0.0 0.00 0.00 0.00 1015.7
20141101060730 66 212 15.0 0.0 0.00 0.00 0.00 1015.7
20141101060630 66 210 18.0 0.0 0.00 0.00 0.00 1015.7
20141101060530 66 215 15.0 0.0 0.00 0.00 0.00 1015.7
20141101060430 66 218 14.0 0.0 0.00 0.00 0.00 1015.7
20141101060330 66 215 12.0 0.0 0.00 0.00 0.00 1015.8
20141101060230 66 215 15.0 0.0 0.00 0.00 0.00 1015.7
20141101060130 66 194 14.0 0.0 0.00 0.00 0.00 1015.8
20141101060030 66 235 13.0 0.0 0.00 0.00 0.00 1015.8
20141101055930 66 200 12.0 0.0 0.00 0.00 0.00 1015.7
20141101055730 65 224 16.0 0.0 0.00 0.00 0.00 1015.8
20141101055531 66 207 10.0 0.0 0.00 0.00 0.00 1015.8
20141101055430 65 228 14.0 0.0 0.00 0.00 0.00 1015.8
20141101055330 66 204 12.0 0.0 0.00 0.00 0.00 1015.8
20141101055230 66 236 11.0 0.0 0.00 0.00 0.00 1015.8
20141101055130 65 233 15.0 0.0 0.00 0.00 0.00 1015.8
20141101055030 66 225 12.0 0.0 0.00 0.00 0.00 1015.8
20141101054930 65 228 15.0 0.0 0.00 0.00 0.00 1015.8
20141101054830 66 214 9.0 0.0 0.00 0.00 0.00 1015.8
20141101054730 66 232 15.0 0.0 0.00 0.00 0.00 1015.8
20141101054630 66 197 13.0 0.0 0.00 0.00 0.00 1015.8
20141101054530 66 210 13.0 0.0 0.00 0.00 0.00 1015.8
20141101054430 66 225 15.0 0.0 0.00 0.00 0.00 1015.8
20141101054330 65 226 14.0 0.0 0.00 0.00 0.00 1015.8
20141101054230 66 249 16.0 0.0 0.00 0.00 0.00 1015.8
20141101054130 66 218 15.0 0.0 0.00 0.00 0.00 1015.8
20141101054030 66 214 16.0 0.0 0.00 0.00 0.00 1015.8
20141101053930 66 235 14.0 0.0 0.00 0.00 0.00 1015.8
20141101053830 66 214 13.0 0.0 0.00 0.00 0.00 1015.8
20141101053730 66 212 17.0 0.0 0.00 0.00 0.00 1015.9
20141101053630 66 198 13.0 0.0 0.00 0.00 0.00 1015.8
20141101053530 66 232 18.0 0.0 0.00 0.00 0.00 1015.9
20141101053430 66 240 20.0 0.0 0.00 0.00 0.00 1015.8
20141101053330 66 180 16.0 0.0 0.00 0.00 0.00 1015.8
20141101053230 66 232 14.0 0.0 0.00 0.00 0.00 1015.8
20141101053130 66 218 18.0 0.0 0.00 0.00 0.00 1015.8
20141101053030 66 229 15.0 0.0 0.00 0.00 0.00 1015.8
20141101052929 66 218 15.0 0.0 0.00 0.00 0.00 1015.8
20141101052830 65 226 17.0 0.0 0.00 0.00 0.00 1015.8
20141101052730 66 226 18.0 0.0 0.00 0.00 0.00 1015.8
20141101052630 66 222 17.0 0.0 0.00 0.00 0.00 1015.8
20141101052530 66 210 15.0 0.0 0.00 0.00 0.00 1015.8
20141101052429 66 226 19.0 0.0 0.00 0.00 0.00 1015.8
20141101052329 66 215 19.0 0.0 0.00 0.00 0.00 1015.8
20141101052230 66 226 18.0 0.0 0.00 0.00 0.00 1015.7
20141101052129 66 217 16.0 0.0 0.00 0.00 0.00 1015.8
20141101052030 66 233 17.0 0.0 0.00 0.00 0.00 1015.8
20141101051930 66 238 17.0 0.0 0.00 0.00 0.00 1015.8
20141101051829 66 193 17.0 0.0 0.00 0.00 0.00 1015.7
20141101051729 66 222 16.0 0.0 0.00 0.00 0.00 1015.6
20141101051630 66 229 17.0 0.0 0.00 0.00 0.00 1015.6
20141101051529 66 225 16.0 0.0 0.00 0.00 0.00 1015.6
20141101051429 65 228 17.0 0.0 0.00 0.00 0.00 1015.6
20141101051330 66 212 18.0 0.0 0.00 0.00 0.00 1015.5
20141101051229 66 201 15.0 0.0 0.00 0.00 0.00 1015.5
20141101051129 66 217 17.0 0.0 0.00 0.00 0.00 1015.5
20141101051029 66 228 15.0 0.0 0.00 0.00 0.00 1015.4
20141101050929 66 219 16.0 0.0 0.00 0.00 0.00 1015.4
20141101050829 66 204 20.0 0.0 0.00 0.00 0.00 1015.4
20141101050729 66 215 19.0 0.0 0.00 0.00 0.00 1015.4
20141101050629 66 218 16.0 0.0 0.00 0.00 0.00 1015.4
20141101050529 66 228 14.0 0.0 0.00 0.00 0.00 1015.4
20141101050429 66 198 18.0 0.0 0.00 0.00 0.00 1015.4
20141101050329 66 214 16.0 0.0 0.00 0.00 0.00 1015.4
20141101050229 66 218 16.0 0.0 0.00 0.00 0.00 1015.4
20141101050129 66 217 17.0 0.0 0.00 0.00 0.00 1015.4
20141101050029 66 222 18.0 0.0 0.00 0.00 0.00 1015.4
20141101045830 66 219 14.0 0.0 0.00 0.00 0.00 1015.4
20141101045629 66 231 17.0 0.0 0.00 0.00 0.00 1015.4
20141101045530 66 218 15.0 0.0 0.00 0.00 0.00 1015.4
20141101045329 66 240 16.0 0.0 0.00 0.00 0.00 1015.4
20141101045229 66 211 15.0 0.0 0.00 0.00 0.00 1015.3
20141101045130 66 221 14.0 0.0 0.00 0.00 0.00 1015.3
20141101045030 66 228 18.0 0.0 0.00 0.00 0.00 1015.3
20141101044930 66 215 14.0 0.0 0.00 0.00 0.00 1015.3
20141101044729 66 229 15.0 0.0 0.00 0.00 0.00 1015.2
20141101044629 66 229 14.0 0.0 0.00 0.00 0.00 1015.2
20141101044529 66 228 16.0 0.0 0.00 0.00 0.00 1015.2
20141101044429 66 224 17.0 0.0 0.00 0.00 0.00 1015.1
20141101044329 66 219 16.0 0.0 0.00 0.00 0.00 1015.1
20141101044129 66 226 13.0 0.0 0.00 0.00 0.00 1015.1
20141101044029 66 229 13.0 0.0 0.00 0.00 0.00 1015.1
20141101043930 66 217 12.0 0.0 0.00 0.00 0.00 1015.0
20141101043829 65 203 13.0 0.0 0.00 0.00 0.00 1015.0
20141101043729 66 204 12.0 0.0 0.00 0.00 0.00 1015.0
20141101043629 66 211 7.0 0.0 0.00 0.00 0.00 1014.9
20141101043529 65 231 14.0 0.0 0.00 0.00 0.00 1014.9
20141101043429 66 222 15.0 0.0 0.00 0.00 0.00 1014.9
20141101043329 66 224 11.0 0.0 0.00 0.00 0.00 1014.9
20141101043229 66 218 13.0 0.0 0.00 0.00 0.00 1014.9
20141101043129 66 210 12.0 0.0 0.00 0.00 0.00 1014.9
20141101043029 66 198 11.0 0.0 0.00 0.00 0.00 1014.8
20141101042929 66 205 13.0 0.0 0.00 0.00 0.00 1014.8
20141101042830 66 207 15.0 0.0 0.00 0.00 0.00 1014.8
20141101042729 66 198 11.0 0.0 0.00 0.00 0.00 1014.8
20141101042629 66 219 13.0 0.0 0.00 0.00 0.00 1014.8
20141101042530 66 231 13.0 0.0 0.00 0.00 0.00 1014.8
20141101042429 66 240 11.0 0.0 0.00 0.00 0.00 1014.8
20141101042329 66 211 10.0 0.0 0.00 0.00 0.00 1014.8
20141101042229 66 218 10.0 0.0 0.00 0.00 0.00 1014.8
20141101042030 66 233 11.0 0.0 0.00 0.00 0.00 1014.9
20141101041929 66 228 13.0 0.0 0.00 0.00 0.00 1014.9
20141101041829 66 215 10.0 0.0 0.00 0.00 0.00 1014.9
20141101041630 66 239 11.0 0.0 0.00 0.00 0.00 1014.9
20141101041429 66 224 12.0 0.0 0.00 0.00 0.00 1014.8
20141101041329 66 212 13.0 0.0 0.00 0.00 0.00 1014.8
20141101041129 66 198 13.0 0.0 0.00 0.00 0.00 1014.8
20141101041029 66 231 11.0 0.0 0.00 0.00 0.00 1014.9
20141101040929 66 214 12.0 0.0 0.00 0.00 0.00 1014.8
20141101040829 65 239 12.0 0.0 0.00 0.00 0.00 1014.9
20141101040729 66 214 13.0 0.0 0.00 0.00 0.00 1014.8
20141101040629 66 217 11.0 0.0 0.00 0.00 0.00 1014.8
20141101040529 65 207 12.0 0.0 0.00 0.00 0.00 1014.9
20141101040430 65 197 10.0 0.0 0.00 0.00 0.00 1014.8
20141101040329 65 212 10.0 0.0 0.00 0.00 0.00 1014.9
20141101040230 66 188 9.0 0.0 0.00 0.00 0.00 1014.9
20141101040130 65 205 11.0 0.0 0.00 0.00 0.00 1014.8
20141101040029 66 207 11.0 0.0 0.00 0.00 0.00 1014.8
20141101035929 65 174 9.0 0.0 0.00 0.00 0.00 1014.8
20141101035829 65 203 12.0 0.0 0.00 0.00 0.00 1014.7
20141101035729 65 208 10.0 0.0 0.00 0.00 0.00 1014.7
20141101035629 65 187 10.0 0.0 0.00 0.00 0.00 1014.7
20141101035429 65 215 8.0 0.0 0.00 0.00 0.00 1014.8
20141101035329 65 184 7.0 0.0 0.00 0.00 0.00 1014.8
20141101035229 65 218 9.0 0.0 0.00 0.00 0.00 1014.8
20141101035129 65 214 10.0 0.0 0.00 0.00 0.00 1014.9
20141101035030 65 211 8.0 0.0 0.00 0.00 0.00 1014.9
20141101034930 65 221 10.0 0.0 0.00 0.00 0.00 1014.9
20141101034830 65 222 9.0 0.0 0.00 0.00 0.00 1014.9
20141101034729 65 208 9.0 0.0 0.00 0.00 0.00 1014.9
20141101034630 65 211 8.0 0.0 0.00 0.00 0.00 1014.9
20141101034529 65 210 7.0 0.0 0.00 0.00 0.00 1014.9
20141101034429 65 226 11.0 0.0 0.00 0.00 0.00 1014.9
20141101034329 65 208 8.0 0.0 0.00 0.00 0.00 1014.9
20141101034229 66 203 10.0 0.0 0.00 0.00 0.00 1014.9
20141101034129 65 207 11.0 0.0 0.00 0.00 0.00 1014.8
20141101034030 65 215 10.0 0.0 0.00 0.00 0.00 1014.9
20141101033929 65 226 8.0 0.0 0.00 0.00 0.00 1014.8
20141101033829 65 224 6.0 0.0 0.00 0.00 0.00 1014.8
20141101033629 65 226 9.0 0.0 0.00 0.00 0.00 1014.8